Погода в Тампе

США     27°56′50″N   82°27′31″W
темп.,
°C
ветер,
м/с
пор.,
м/с
влажн.,
%
обл.,
%
осадки,
мм/ч
давл.,
гПа
погр.,
м
20 апреля, вт
вт2023:00+21с3469100 0.0 1014193
02:00+20св3474100 0.0 1014175
05:00+20в358385 0.4 1013217
08:00+20вюв2492100 2.9 1015255
11:00+23юв3482100 1.0 1015575
14:00+26юз4570100 1.2 1014777
17:00+26з5571100 0.8 1013891
20:00+23зсз338291 1.4 1014374
21 апреля, ср
ср2123:00+22сз228572 0.7 1015229
02:00+21зсз358898 0.9 1015377
05:00+21зсз36834 0.2 1015419
08:00+21сз3672100 0.2 1017436
11:00+25сз55510 0.0 1018989
14:00+27зсз65400 0.0 10171260
17:00+26сз76409 0.0 10161080
20:00+23сз57475 0.0 1017535
22 апреля, чт
чт2223:00+21сз58620 0.0 1019480
02:00+20ссз47721 0.0 1018447
05:00+17ссв510665 0.0 1018340
08:00+16ссв59600 0.0 1020359
11:00+21св55434 0.0 1021699
14:00+25св33370 0.0 10201376
17:00+27ссв32320 0.0 10181664
20:00+23с57455 0.0 1019295
23 апреля, пт
пт2323:00+20всв69570 0.0 1021412
02:00+18в49745 0.0 1020351
05:00+17всв59805 0.0 1019293
08:00+18всв4981100 0.0 1020290
11:00+24вюв56545 0.0 10211033
14:00+28юв34440 0.0 10191623
17:00+30в233723 0.0 10161959
20:00+27св265089 0.0 1017668
24 апреля, сб
сб2423:00+24юв71062100 0.0 1018750
02:00+23вюв61062100 0.0 1017566
05:00+22юв51167100 0.0 1015564
08:00+22юв6127399 0.0 1016590
11:00+27ююв796099 0.0 10161144
14:00+30ююз795147 0.0 10151567
17:00+28ююз9116210 0.0 1013955
20:00+26ююз711750 0.0 1013714